EW0880 Weather Reports


Display with metric or nautical units.
time (UTC)temp
F
wind
direction
speed
MPH
gust
MPH
rain 1hr
in
rain 24hr
in
rain mn
in
humidity
%
barometer
mb
20210308161019 34 309 2.0 10.0 0.00 0.00 0.00 64 1027.5
20210308160522 34 315 6.0 13.0 0.00 0.00 0.00 64 1027.5
20210308160024 33 301 5.0 12.0 0.00 0.00 0.00 62 1027.4
20210308155748 34 6 2.0 8.0 0.00 0.00 0.00 63 1027.6
20210308155213 33 14 2.0 10.0 0.00 0.00 0.00 62 1027.6
20210308154519 33 304 4.0 9.0 0.00 0.00 0.00 62 1027.7
20210308154020 33 324 3.0 9.0 0.00 0.00 0.00 60 1027.7
20210308153520 33 338 4.0 10.0 0.00 0.00 0.00 60 1027.8
20210308153021 33 321 2.0 10.0 0.00 0.00 0.00 60 1027.8
20210308152749 33 4 2.0 7.0 0.00 0.00 0.00 61 1027.9
20210308152107 32 21 5.0 9.0 0.00 0.00 0.00 61 1027.8
20210308151516 31 24 3.0 13.0 0.00 0.00 0.00 60 1027.9
20210308151012 32 321 6.0 13.0 0.00 0.00 0.00 59 1027.8
20210308150521 32 36 3.0 9.0 0.00 0.00 0.00 61 1027.8
20210308150052 31 35 3.0 9.0 0.00 0.00 0.00 61 1027.8
20210308145906 30 320 7.0 10.0 0.00 0.00 0.00 61 1027.7
20210308145320 31 318 6.0 9.0 0.00 0.00 0.00 60 1027.7
20210308144516 31 12 4.0 10.0 0.00 0.00 0.00 61 1027.7
20210308144010 30 330 2.0 10.0 0.00 0.00 0.00 62 1027.8
20210308143509 30 294 3.0 8.0 0.00 0.00 0.00 62 1027.7
20210308143012 30 345 5.0 9.0 0.00 0.00 0.00 63 1027.7
20210308142812 29 300 5.0 10.0 0.00 0.00 0.00 64 1027.6
20210308142212 29 300 3.0 9.0 0.00 0.00 0.00 63 1027.7
20210308141527 29 279 3.0 9.0 0.00 0.00 0.00 64 1027.6
20210308141018 29 13 3.0 9.0 0.00 0.00 0.00 64 1027.6
20210308140512 28 302 4.0 10.0 0.00 0.00 0.00 64 1027.6
20210308140210 28 13 2.0 10.0 0.00 0.00 0.00 65 1027.6
20210308140052 28 316 6.0 12.0 0.00 0.00 0.00 65 1027.6
20210308135729 27 315 5.0 10.0 0.00 0.00 0.00 65 1027.5
20210308134538 27 320 5.0 10.0 0.00 0.00 0.00 65 1027.5
20210308134010 27 327 6.0 12.0 0.00 0.00 0.00 66 1027.5
20210308133519 27 352 4.0 8.0 0.00 0.00 0.00 67 1027.5
20210308133210 26 345 3.0 9.0 0.00 0.00 0.00 67 1027.5
20210308133028 26 292 4.0 10.0 0.00 0.00 0.00 67 1027.4
20210308132603 26 307 4.0 12.0 0.00 0.00 0.00 67 1027.5
20210308131521 26 306 1.0 10.0 0.00 0.00 0.00 68 1027.4
20210308131038 26 318 3.0 8.0 0.00 0.00 0.00 68 1027.4
20210308130516 26 7 4.0 12.0 0.00 0.00 0.00 67 1027.5
20210308125711 25 347 3.0 10.0 0.00 0.00 0.00 70 1027.5
20210308124517 25 317 5.0 10.0 0.00 0.00 0.00 70 1027.5
20210308124012 25 331 7.0 12.0 0.00 0.00 0.00 70 1027.5
20210308123433 24 335 3.0 12.0 0.00 0.00 0.00 71 1027.6
20210308123126 24 351 5.0 12.0 0.00 0.00 0.00 72 1027.6
20210308121623 24 317 2.0 8.0 0.00 0.00 0.00 73 1027.7
20210308121019 24 345 4.0 8.0 0.00 0.00 0.00 73 1027.6
20210308120525 24 309 6.0 12.0 0.00 0.00 0.00 73 1027.6
20210308120214 24 316 6.0 12.0 0.00 0.00 0.00 73 1027.6
20210308115929 24 335 4.0 10.0 0.00 0.00 0.00 73 1027.5
20210308115431 24 328 3.0 8.0 0.00 0.00 0.00 73 1027.4
20210308114523 24 311 3.0 8.0 0.00 0.00 0.00 74 1027.4
20210308114037 24 321 3.0 5.0 0.00 0.00 0.00 74 1027.4
20210308113528 23 322 2.0 7.0 0.00 0.00 0.00 74 1027.4
20210308113204 23 309 3.0 5.0 0.00 0.00 0.00 74 1027.4
20210308113024 23 310 1.0 6.0 0.00 0.00 0.00 74 1027.3
20210308112436 23 307 2.0 7.0 0.00 0.00 0.00 75 1027.3
20210308111536 23 300 0.0 7.0 0.00 0.00 0.00 75 1027.4
20210308111017 24 318 2.0 6.0 0.00 0.00 0.00 75 1027.4
20210308110520 24 304 0.0 5.0 0.00 0.00 0.00 74 1027.2
20210308110236 24 307 1.0 5.0 0.00 0.00 0.00 74 1027.1
20210308105957 24 319 1.0 3.0 0.00 0.00 0.00 74 1027.0
20210308105747 24 306 1.0 5.0 0.00 0.00 0.00 74 1027.0
20210308104546 24 305 3.0 9.0 0.00 0.00 0.00 74 1026.9
20210308104020 24 330 2.0 5.0 0.00 0.00 0.00 73 1026.9
20210308103529 24 323 1.0 3.0 0.00 0.00 0.00 73 1026.9
20210308103053 24 323 1.0 8.0 0.00 0.00 0.00 73 1026.8
20210308102919 24 305 1.0 7.0 0.00 0.00 0.00 74 1026.8
20210308102349 24 309 1.0 8.0 0.00 0.00 0.00 73 1026.8
20210308101521 24 310 3.0 8.0 0.00 0.00 0.00 73 1026.7
20210308101020 24 318 1.0 5.0 0.00 0.00 0.00 74 1026.8
20210308100729 24 307 2.0 5.0 0.00 0.00 0.00 74 1026.8
20210308100421 24 310 2.0 5.0 0.00 0.00 0.00 74 1026.7
20210308100139 24 302 3.0 7.0 0.00 0.00 0.00 75 1026.7
20210308095552 25 303 2.0 7.0 0.00 0.00 0.00 74 1026.6
20210308094518 25 300 2.0 8.0 0.00 0.00 0.00 74 1026.6
20210308094035 25 314 2.0 3.0 0.00 0.00 0.00 74 1026.6
20210308093513 25 313 3.0 6.0 0.00 0.00 0.00 75 1026.5
20210308093057 25 271 1.0 3.0 0.00 0.00 0.00 78 1026.5
20210308092919 25 296 1.0 2.0 0.00 0.00 0.00 77 1026.5
20210308092406 25 297 0.0 2.0 0.00 0.00 0.00 77 1026.5
20210308091540 25 304 0.0 2.0 0.00 0.00 0.00 74 1026.6
20210308091057 25 313 1.0 3.0 0.00 0.00 0.00 77 1026.6
20210308090516 25 316 1.0 3.0 0.00 0.00 0.00 76 1026.5
20210308090149 25 297 0.0 1.0 0.00 0.00 0.00 78 1026.5
20210308085930 25 297 0.0 2.0 0.00 0.00 0.00 75 1026.5
20210308085328 25 299 0.0 1.0 0.00 0.00 0.00 73 1026.4
20210308084511 25 300 0.0 2.0 0.00 0.00 0.00 72 1026.4
20210308084028 25 300 1.0 3.0 0.00 0.00 0.00 72 1026.4
20210308083821 25 304 0.0 2.0 0.00 0.00 0.00 73 1026.3
20210308083513 25 304 0.0 6.0 0.00 0.00 0.00 72 1026.3
20210308083307 26 286 2.0 6.0 0.00 0.00 0.00 72 1026.3
20210308082911 26 326 0.0 0.0 0.00 0.00 0.00 72 1026.2
20210308081518 26 327 1.0 3.0 0.00 0.00 0.00 72 1026.2
20210308081012 26 303 0.0 0.0 0.00 0.00 0.00 73 1026.2
20210308080510 27 303 0.0 0.0 0.00 0.00 0.00 73 1026.2
20210308080030 27 303 0.0 1.0 0.00 0.00 0.00 74 1025.9
20210308075737 27 303 0.0 3.0 0.00 0.00 0.00 73 1025.9
20210308075111 27 303 0.0 0.0 0.00 0.00 0.00 75 1025.9
20210308074512 27 303 0.0 1.0 0.00 0.00 0.00 74 1026.0
20210308074020 27 304 0.0 1.0 0.00 0.00 0.00 77 1026.0
20210308073521 26 305 2.0 3.0 0.00 0.00 0.00 70 1025.9
20210308073026 27 328 1.0 3.0 0.00 0.00 0.00 70 1025.9
20210308072719 27 301 1.0 2.0 0.00 0.00 0.00 73 1025.9
20210308072051 27 298 1.0 3.0 0.00 0.00 0.00 73 1026.1
20210308071521 27 285 1.0 3.0 0.00 0.00 0.00 71 1026.1
20210308071018 27 307 1.0 3.0 0.00 0.00 0.00 68 1026.1
20210308070515 27 304 1.0 3.0 0.00 0.00 0.00 68 1026.1
20210308070039 27 307 2.0 5.0 0.00 0.00 0.00 67 1026.1
20210308065829 27 300 1.0 3.0 0.00 0.00 0.00 67 1026.2
20210308065220 27 301 1.0 7.0 0.00 0.00 0.00 67 1026.2
20210308064527 27 311 4.0 7.0 0.00 0.00 0.00 66 1026.2
20210308064019 27 305 3.0 7.0 0.00 0.00 0.00 66 1026.3
20210308063519 27 302 3.0 6.0 0.00 0.00 0.00 66 1026.3
20210308063017 27 309 2.0 3.0 0.00 0.00 0.00 66 1026.3
20210308062801 27 318 1.0 3.0 0.00 0.00 0.00 66 1026.3
20210308062339 27 316 2.0 5.0 0.00 0.00 0.00 66 1026.3
20210308061513 28 309 3.0 6.0 0.00 0.00 0.00 65 1026.3
20210308061032 28 314 2.0 7.0 0.00 0.00 0.00 65 1026.2
20210308060516 28 321 5.0 9.0 0.00 0.00 0.00 65 1026.3
20210308060119 28 317 1.0 3.0 0.00 0.00 0.00 66 1026.2
20210308055940 28 305 4.0 7.0 0.00 0.00 0.00 65 1026.3
20210308055206 28 311 2.0 3.0 0.00 0.00 0.00 65 1026.3
20210308054527 28 302 1.0 6.0 0.00 0.00 0.00 65 1026.3
20210308054025 28 324 3.0 9.0 0.00 0.00 0.00 65 1026.2
20210308053602 28 297 3.0 9.0 0.00 0.00 0.00 65 1026.3
20210308053232 28 311 2.0 6.0 0.00 0.00 0.00 66 1026.3
20210308052953 28 309 2.0 3.0 0.00 0.00 0.00 65 1026.3
20210308052636 29 298 1.0 3.0 0.00 0.00 0.00 65 1026.2
20210308051511 29 304 1.0 2.0 0.00 0.00 0.00 65 1026.1
20210308051018 29 310 2.0 6.0 0.00 0.00 0.00 64 1026.1
20210308050513 29 313 3.0 8.0 0.00 0.00 0.00 64 1026.1
20210308050135 29 336 2.0 7.0 0.00 0.00 0.00 64 1026.1
20210308045928 29 301 2.0 5.0 0.00 0.00 0.00 64 1026.1
20210308045310 29 331 2.0 8.0 0.00 0.00 0.00 64 1026.2
20210308044512 29 322 2.0 5.0 0.00 0.00 0.00 64 1026.1
20210308044020 29 345 1.0 3.0 0.00 0.00 0.00 64 1026.2
20210308043513 29 314 1.0 3.0 0.00 0.00 0.00 64 1026.2
20210308043137 29 295 2.0 6.0 0.00 0.00 0.00 63 1026.1
20210308042857 29 310 0.0 5.0 0.00 0.00 0.00 63 1026.1
20210308042300 29 330 3.0 8.0 0.00 0.00 0.00 63 1026.1
20210308041534 29 319 2.0 5.0 0.00 0.00 0.00 63 1026.1
20210308041044 29 326 3.0 7.0 0.00 0.00 0.00 63 1026.1
20210308040512 29 327 1.0 3.0 0.00 0.00 0.00 63 1026.0
20210308040110 29 317 1.0 6.0 0.00 0.00 0.00 63 1026.0
20210308035847 29 314 2.0 5.0 0.00 0.00 0.00 63 1026.0
20210308035219 29 308 2.0 5.0 0.00 0.00 0.00 63 1026.1
20210308034513 29 317 1.0 3.0 0.00 0.00 0.00 64 1026.1
20210308034020 29 312 1.0 5.0 0.00 0.00 0.00 65 1026.1
20210308033511 29 303 0.0 0.0 0.00 0.00 0.00 65 1026.1
20210308033028 30 303 0.0 0.0 0.00 0.00 0.00 64 1026.2
20210308032635 30 303 0.0 0.0 0.00 0.00 0.00 63 1026.1
20210308032119 30 303 0.0 5.0 0.00 0.00 0.00 62 1026.1
20210308031543 30 307 1.0 5.0 0.00 0.00 0.00 63 1025.9
20210308031011 30 325 0.0 3.0 0.00 0.00 0.00 63 1025.9
20210308030521 30 326 1.0 3.0 0.00 0.00 0.00 64 1025.9
20210308030022 29 306 1.0 3.0 0.00 0.00 0.00 65 1025.9
20210308025803 29 306 0.0 3.0 0.00 0.00 0.00 67 1026.0
20210308025201 29 310 0.0 0.0 0.00 0.00 0.00 68 1026.0
20210308024520 29 310 0.0 0.0 0.00 0.00 0.00 69 1025.9
20210308024019 29 309 0.0 0.0 0.00 0.00 0.00 67 1025.9
20210308023515 29 309 0.0 0.0 0.00 0.00 0.00 68 1025.9
20210308023117 30 309 0.0 0.0 0.00 0.00 0.00 69 1025.9
20210308022911 30 309 0.0 0.0 0.00 0.00 0.00 72 1025.8
20210308022311 29 309 0.0 0.0 0.00 0.00 0.00 76 1025.8
20210308021514 28 309 0.0 0.0 0.00 0.00 0.00 69 1025.8
20210308021021 28 309 0.0 0.0 0.00 0.00 0.00 66 1025.8
20210308020512 29 309 0.0 0.0 0.00 0.00 0.00 66 1025.8
20210308020016 29 309 0.0 0.0 0.00 0.00 0.00 66 1025.9
20210308015806 30 309 0.0 0.0 0.00 0.00 0.00 66 1025.9
20210308015324 30 309 0.0 0.0 0.00 0.00 0.00 65 1025.8
20210308014516 30 309 0.0 0.0 0.00 0.00 0.00 67 1025.7
20210308014023 30 309 0.0 0.0 0.00 0.00 0.00 72 1025.6
20210308013518 30 309 0.0 0.0 0.00 0.00 0.00 65 1025.6
20210308013126 30 309 0.0 0.0 0.00 0.00 0.00 64 1025.6
20210308012931 30 309 0.0 0.0 0.00 0.00 0.00 64 1025.6
20210308012159 30 309 0.0 0.0 0.00 0.00 0.00 63 1025.6
20210308011517 30 309 0.0 0.0 0.00 0.00 0.00 63 1025.6
20210308011016 30 309 0.0 0.0 0.00 0.00 0.00 63 1025.5
20210308010516 31 309 0.0 0.0 0.00 0.00 0.00 62 1025.4
20210308010212 31 309 0.0 0.0 0.00 0.00 0.00 61 1025.4
20210308010056 31 309 0.0 0.0 0.00 0.00 0.00 58 1025.4
20210308005915 32 309 0.0 0.0 0.00 0.00 0.00 58 1025.4
20210308004615 32 309 0.0 0.0 0.00 0.00 0.00 59 1025.4
20210308004025 32 309 0.0 0.0 0.00 0.00 0.00 58 1025.4
20210308003532 32 309 0.0 0.0 0.00 0.00 0.00 57 1025.4
20210308003203 32 309 0.0 0.0 0.00 0.00 0.00 57 1025.4
20210308003007 32 309 0.0 0.0 0.00 0.00 0.00 57 1025.4
20210308002433 32 309 0.0 0.0 0.00 0.00 0.00 56 1025.4
20210308001520 32 309 0.0 0.0 0.00 0.00 0.00 56 1025.3
20210308001218 32 309 0.0 0.0 0.00 0.00 0.00 56 1025.2
20210308000812 33 309 0.0 0.0 0.00 0.00 0.00 57 1025.3
20210308000618 33 309 0.0 0.0 0.00 0.00 0.00 56 1025.2
20210308000122 33 309 0.0 0.0 0.00 0.00 0.00 56 1025.1
20210307235448 33 309 0.0 2.0 0.00 0.00 0.00 55 1025.1
20210307234526 33 309 0.0 1.0 0.00 0.00 0.00 55 1025.0
20210307234012 33 309 0.0 1.0 0.00 0.00 0.00 55 1025.0
20210307233519 33 309 1.0 2.0 0.00 0.00 0.00 54 1024.9
20210307233301 33 313 2.0 5.0 0.00 0.00 0.00 54 1024.8
20210307233117 33 309 1.0 5.0 0.00 0.00 0.00 54 1024.8
20210307232455 33 304 1.0 7.0 0.00 0.00 0.00 54 1024.7
20210307231519 34 306 1.0 7.0 0.00 0.00 0.00 53 1024.7
20210307231055 34 299 1.0 3.0 0.00 0.00 0.00 54 1024.5
20210307230523 34 318 1.0 5.0 0.00 0.00 0.00 53 1024.5
20210307230123 34 317 2.0 7.0 0.00 0.00 0.00 53 1024.4
20210307225907 34 300 2.0 7.0 0.00 0.00 0.00 52 1024.3
20210307225528 34 300 3.0 6.0 0.00 0.00 0.00 52 1024.3
20210307224523 34 317 1.0 10.0 0.00 0.00 0.00 52 1024.1
20210307224033 34 295 4.0 9.0 0.00 0.00 0.00 52 1024.1
20210307223524 34 321 2.0 8.0 0.00 0.00 0.00 51 1024.0
20210307223251 34 290 3.0 9.0 0.00 0.00 0.00 51 1023.9
20210307223052 35 304 3.0 9.0 0.00 0.00 0.00 51 1023.9
20210307222356 35 309 4.0 9.0 0.00 0.00 0.00 51 1023.8
20210307221515 35 325 6.0 13.0 0.00 0.00 0.00 51 1023.8
20210307221019 35 308 2.0 8.0 0.00 0.00 0.00 51 1023.7
20210307220517 35 314 1.0 8.0 0.00 0.00 0.00 50 1023.7
20210307220021 35 313 3.0 8.0 0.00 0.00 0.00 50 1023.7
20210307215718 36 322 4.0 10.0 0.00 0.00 0.00 50 1023.7
20210307215142 36 310 3.0 9.0 0.00 0.00 0.00 49 1023.7
20210307214528 36 295 6.0 10.0 0.00 0.00 0.00 49 1023.6
20210307214032 36 271 1.0 9.0 0.00 0.00 0.00 50 1023.6
20210307213733 36 278 2.0 12.0 0.00 0.00 0.00 49 1023.5
20210307213404 36 314 2.0 9.0 0.00 0.00 0.00 50 1023.5
20210307213131 36 298 3.0 9.0 0.00 0.00 0.00 49 1023.4
20210307212306 36 301 3.0 10.0 0.00 0.00 0.00 49 1023.3
20210307211525 36 12 4.0 8.0 0.00 0.00 0.00 50 1023.3
20210307211021 36 326 6.0 10.0 0.00 0.00 0.00 49 1023.2
20210307210511 36 293 4.0 10.0 0.00 0.00 0.00 49 1023.3
20210307210101 36 256 2.0 9.0 0.00 0.00 0.00 50 1023.3
20210307205837 36 277 2.0 12.0 0.00 0.00 0.00 50 1023.2
20210307205100 37 336 5.0 12.0 0.00 0.00 0.00 49 1023.2
20210307204530 37 263 1.0 8.0 0.00 0.00 0.00 51 1023.2
20210307204019 36 263 3.0 9.0 0.00 0.00 0.00 50 1023.2
20210307203524 36 297 4.0 12.0 0.00 0.00 0.00 50 1023.3
20210307203032 37 284 5.0 12.0 0.00 0.00 0.00 50 1023.2
20210307202715 36 304 4.0 9.0 0.00 0.00 0.00 50 1023.2
20210307202148 36 302 6.0 12.0 0.00 0.00 0.00 50 1023.2
20210307201522 36 289 3.0 9.0 0.00 0.00 0.00 50 1023.2
20210307201024 36 284 6.0 12.0 0.00 0.00 0.00 50 1023.1
20210307200520 36 318 2.0 9.0 0.00 0.00 0.00 50 1023.1
20210307200144 36 303 2.0 8.0 0.00 0.00 0.00 50 1023.2
20210307195952 36 331 4.0 10.0 0.00 0.00 0.00 50 1023.2
20210307195436 35 322 3.0 9.0 0.00 0.00 0.00 51 1023.2
20210307194521 35 307 6.0 12.0 0.00 0.00 0.00 50 1023.2
20210307194020 35 274 3.0 10.0 0.00 0.00 0.00 50 1023.2
20210307193525 35 304 7.0 12.0 0.00 0.00 0.00 51 1023.2
20210307193023 35 298 1.0 8.0 0.00 0.00 0.00 51 1023.2
20210307192746 35 310 9.0 13.0 0.00 0.00 0.00 50 1023.1
20210307192118 35 314 6.0 13.0 0.00 0.00 0.00 50 1023.1
20210307191526 35 12 3.0 10.0 0.00 0.00 0.00 51 1023.1
20210307191021 35 324 7.0 12.0 0.00 0.00 0.00 51 1023.0
20210307190520 35 298 1.0 12.0 0.00 0.00 0.00 52 1023.1
20210307190032 34 312 3.0 12.0 0.00 0.00 0.00 51 1023.2
20210307185745 34 306 6.0 12.0 0.00 0.00 0.00 52 1023.1
20210307185106 34 297 3.0 13.0 0.00 0.00 0.00 52 1023.1
20210307184525 35 296 5.0 12.0 0.00 0.00 0.00 52 1023.1
20210307184019 34 280 1.0 8.0 0.00 0.00 0.00 52 1023.1
20210307183525 34 256 5.0 14.0 0.00 0.00 0.00 52 1023.2
20210307183037 34 302 7.0 12.0 0.00 0.00 0.00 52 1023.2
20210307182817 34 314 7.0 13.0 0.00 0.00 0.00 51 1023.3
20210307182344 34 308 6.0 14.0 0.00 0.00 0.00 52 1023.3
20210307181525 34 291 1.0 3.0 0.00 0.00 0.00 53 1023.4
20210307181024 34 285 4.0 10.0 0.00 0.00 0.00 52 1023.5
20210307180523 34 325 2.0 10.0 0.00 0.00 0.00 53 1023.5
20210307180021 33 309 1.0 8.0 0.00 0.00 0.00 53 1023.6
20210307175746 33 353 2.0 8.0 0.00 0.00 0.00 53 1023.7
20210307175219 33 291 5.0 10.0 0.00 0.00 0.00 53 1023.8
20210307174542 33 318 2.0 10.0 0.00 0.00 0.00 54 1023.8
20210307174035 33 307 7.0 13.0 0.00 0.00 0.00 54 1023.8
20210307173607 32 316 1.0 10.0 0.00 0.00 0.00 54 1023.9
20210307173259 32 6 2.0 12.0 0.00 0.00 0.00 55 1024.0
20210307173032 31 264 4.0 12.0 0.00 0.00 0.00 54 1024.0
20210307172441 32 322 5.0 12.0 0.00 0.00 0.00 54 1024.0
20210307171522 32 235 7.0 12.0 0.00 0.00 0.00 55 1024.1
20210307171022 32 286 6.0 12.0 0.00 0.00 0.00 56 1024.2
20210307170521 32 300 3.0 10.0 0.00 0.00 0.00 56 1024.1
20210307170154 31 4 4.0 12.0 0.00 0.00 0.00 56 1024.2
20210307170026 31 303 6.0 14.0 0.00 0.00 0.00 56 1024.2
20210307165422 30 313 5.0 10.0 0.00 0.00 0.00 56 1024.3
20210307164519 30 282 4.0 12.0 0.00 0.00 0.00 57 1024.3
20210307164040 30 320 6.0 13.0 0.00 0.00 0.00 57 1024.2
20210307163518 30 317 2.0 10.0 0.00 0.00 0.00 57 1024.3
20210307163035 29 291 5.0 12.0 0.00 0.00 0.00 57 1024.2
20210307162828 29 300 5.0 13.0 0.00 0.00 0.00 57 1024.3
20210307162158 29 310 5.0 13.0 0.00 0.00 0.00 57 1024.3
20210307161521 29 270 7.0 12.0 0.00 0.00 0.00 58 1024.3